Tracking 35280 objects as of 7-Sep-2026
HD Live streaming from Space Station
objects crossing your sky now

COSMOS 1813 DEB


COSMOS 1813 DEB is no longer on orbit


NORAD ID: 17938
Int'l Code: 1987-004EF
Launch date: January 15, 1987
Source: Commonwealth of Independent States (former USSR) (CIS)
Launch site: PLESETSK MISSILE AND SPACE COMPLEX (PKMTR)
Decay date: 1987-11-29

Note: This is SATELLITE DEBRIS
Your satellite tracking list
Your tracking list is empty




NASA's NSSDC Master Catalog

Two Line Element Set (TLE):
1 17938U 87004 EF 87332.82731781  .06164517 +87000-5 +49236-3 0  9994
2 17938 072.8009 240.2798 0009490 165.9288 203.3625 16.39749355044088
Source of the keplerian elements: AFSPC